Lapse_Rate
7.0 5.6 5.3 5.2 5.3 5.5 5.9 6.0 6.0 5.8 6.2 6.3 6.0 5.9 7.2 7.4 7.6 7.2 6.5 5.9 6.2 6.1 5.8 6.0 5.9 5.8 5.9 6.0 5.6 5.6 5.4 5.4 5.6
7.1 6.0 5.0 5.1 5.1 5.3 5.6 5.8 5.8 5.8 6.0 6.6 6.5 6.4 7.1 6.6 6.5 6.0 6.3 6.4 6.3 6.2 6.1 6.0 6.2 6.0 6.1 6.6 6.1 5.5 5.8 5.6 5.5
6.3 5.8 5.0 4.5 4.4 4.6 4.6 5.3 5.6 5.5 5.8 6.3 7.0 6.2 6.8 6.7 6.5 6.2 5.7 6.1 6.4 6.2 6.0 6.0 6.2 5.9 5.8 5.9 5.9 5.5 5.3 5.4 5.5
5.1 5.0 4.5 3.8 3.5 3.5 3.6 4.4 4.8 5.5 5.5 5.7 7.3 6.7 6.4 6.0 5.8 6.4 5.7 6.4 6.4 6.2 5.9 5.8 6.1 6.0 5.8 5.6 5.6 5.9 5.6 5.6 5.3
4.1 4.2 4.7 4.6 4.6 4.6 5.1 5.3 5.1 5.8 6.1 6.6 8.3 8.0 6.4 5.2 4.7 5.1 5.7 6.5 6.4 6.1 5.7 5.4 6.1 6.1 5.7 5.4 5.8 5.7 5.5 5.4 5.3
5.0 5.3 5.3 5.2 5.5 5.8 6.5 6.3 6.3 6.4 6.2 6.0 8.4 7.1 5.7 4.7 4.0 4.6 5.9 6.3 6.5 6.2 5.5 5.3 5.6 5.9 5.8 5.0 5.2 5.0 5.3 5.4 5.3
6.7 6.6 7.2 6.8 6.6 7.1 6.4 5.4 5.5 5.6 5.1 5.2 6.2 7.4 5.9 4.2 3.7 3.9 6.0 6.3 6.2 6.0 6.3 6.4 6.4 6.2 6.0 5.6 5.4 5.3 5.2 5.0 4.8
6.0 5.7 6.0 6.4 7.6 7.3 6.8 5.6 4.8 4.4 4.8 4.6 4.9 5.9 6.1 4.8 3.3 3.5 5.4 6.5 6.5 6.1 6.0 5.1 5.9 6.3 6.3 6.0 5.8 5.3 5.3 5.3 5.0
5.1 5.4 5.6 5.8 6.9 7.4 7.1 6.0 6.0 5.5 5.0 5.0 5.1 5.4 5.2 5.5 4.1 3.7 4.3 5.6 6.6 6.5 6.4 6.3 6.0 6.2 6.1 6.2 6.2 6.2 5.5 5.4 5.3
4.7 4.6 5.0 4.9 4.9 5.9 6.3 6.6 6.5 6.0 6.1 6.0 5.9 5.8 6.0 5.9 5.5 4.4 4.4 4.6 5.7 6.2 6.5 6.7 6.4 6.2 6.0 6.0 6.2 6.5 6.0 5.8 5.6
4.7 4.8 4.6 3.7 3.3 4.0 6.2 6.4 6.1 6.4 6.8 6.3 6.6 6.4 6.2 6.3 6.0 5.5 4.9 4.7 4.9 5.7 5.9 6.2 6.6 6.7 6.1 5.5 5.4 5.7 5.9 5.9 5.8
3.9 3.4 3.8 4.3 4.1 4.1 5.0 5.3 7.1 6.7 7.3 6.7 7.3 6.9 6.5 6.4 6.1 5.9 5.6 5.0 5.2 5.6 5.8 5.8 6.1 6.3 6.7 6.1 5.5 5.7 5.9 6.0 5.8
3.0 2.7 2.8 4.3 4.7 4.1 4.4 5.6 5.9 6.4 5.6 5.9 6.2 6.9 7.5 7.4 6.9 6.2 5.8 6.0 5.5 5.6 5.6 5.8 6.0 6.2 6.2 6.2 6.1 5.7 6.0 5.9 6.1
1.5 1.4 1.4 3.5 3.3 3.0 3.0 3.8 4.5 4.1 4.8 6.5 6.5 6.6 6.7 7.3 7.4 6.5 6.1 6.2 6.3 5.9 5.5 5.8 5.6 5.6 5.0 5.2 5.4 5.8 6.0 5.9 6.1
0.3 0.7 0.8 1.9 2.1 1.9 2.3 2.9 4.1 3.6 3.3 5.9 6.9 6.6 7.1 7.6 6.6 6.7 7.1 7.2 7.0 6.6 6.4 6.2 5.4 4.1 3.7 4.1 4.7 5.4 5.9 6.1 5.9
-1.9 -0.7 -0.1 0.7 1.1 0.9 1.6 1.9 3.6 3.3 2.9 4.2 5.7 6.6 6.2 6.1 6.5 7.5 7.1 7.7 7.3 7.7 7.2 6.5 5.8 3.0 2.2 3.0 3.5 4.0 4.9 5.5 5.8
-2.2 -2.0 -1.2 -0.4 0.1 0.6 1.0 1.7 2.2 3.0 2.5 1.7 3.8 7.0 7.2 6.5 6.4 6.3 6.8 6.3 6.3 6.6 7.8 7.3 5.5 3.3 1.7 1.8 2.5 3.3 4.1 4.7 4.8
-2.9 -2.2 -1.2 -0.9 -0.3 -0.2 0.4 0.9 1.5 2.1 2.2 2.0 2.2 3.8 5.2 5.2 7.3 5.5 5.5 4.7 4.5 5.1 6.3 6.6 5.8 4.7 1.7 1.4 1.7 2.8 3.5 4.0 4.6
-2.1 -1.6 -1.6 -1.0 -0.7 -0.4 0.5 0.8 1.0 1.5 1.5 2.6 2.7 3.9 2.6 2.1 5.8 6.1 4.0 4.7 3.9 4.5 5.2 5.6 5.3 4.6 3.7 1.9 2.3 3.0 3.5 3.6 4.4
-1.3 -1.3 -1.3 -0.9 -0.8 -0.6 0.1 0.7 0.7 0.8 1.2 1.6 1.8 2.8 3.5 3.3 3.2 3.5 1.4 2.1 2.8 5.0 6.9 6.0 4.9 4.3 3.7 3.3 2.1 3.0 3.5 3.3 4.4
Wind_Speed
12 19 19 20 20 22 20 20 20 19 17 18 19 18 17 16 17 17 19 15 18 19 19 19 20 19 18 18 20 19 19 19 19
14 19 19 19 20 19 21 20 20 21 21 21 24 20 19 18 15 17 16 15 18 18 19 18 17 18 18 18 20 19 18 18 18
18 19 18 17 19 19 20 20 19 20 20 19 23 27 23 20 18 18 15 16 17 17 18 17 16 17 18 17 18 17 17 17 16
20 20 21 24 24 23 22 22 22 20 18 17 19 27 27 19 19 16 13 12 16 16 17 16 14 16 16 16 15 15 16 16 15
20 18 19 20 19 18 18 18 19 16 18 23 22 23 23 19 19 16 14 10 11 15 16 17 15 12 13 14 15 17 16 15 14
18 18 18 17 16 17 16 16 15 13 15 23 19 22 19 18 17 16 19 17 11 12 14 12 10 9 12 14 16 17 15 14 13
14 15 15 13 11 17 20 19 17 14 16 17 18 17 17 16 16 19 23 21 20 16 13 11 8 10 12 16 17 17 15 14 13
12 14 16 17 16 12 16 15 14 15 15 15 17 16 15 15 16 21 24 25 25 22 18 12 9 13 13 14 16 16 15 13 12
13 15 16 14 10 13 10 14 12 14 16 15 15 18 16 14 14 21 24 22 24 24 25 23 19 19 17 14 15 15 15 13 12
14 12 12 13 15 14 14 13 10 10 10 13 14 14 15 16 14 16 21 20 21 22 23 23 24 25 23 21 19 16 13 11 11
11 10 11 14 15 15 12 9 9 8 11 10 13 13 15 14 14 14 15 19 20 21 22 22 21 22 22 22 24 25 21 15 11
16 14 12 11 13 15 12 13 5 5 7 8 11 10 13 12 13 13 14 12 20 19 21 21 21 21 21 22 20 21 22 20 20
16 13 13 17 14 12 10 7 4 5 5 3 4 10 11 9 10 13 14 15 11 17 21 21 21 22 22 22 22 21 21 22 20
17 16 16 18 15 14 11 4 5 4 6 4 4 6 8 11 11 14 14 16 19 16 18 23 23 25 26 24 23 22 22 22 22
17 17 18 17 13 12 12 5 6 5 4 5 4 4 6 12 12 12 16 18 19 20 21 20 24 28 29 28 25 24 23 22 22
20 15 17 16 12 10 13 5 6 8 9 3 3 3 5 6 7 15 14 13 17 18 20 20 21 22 28 30 28 27 25 24 25
18 17 15 16 11 11 10 9 4 4 8 3 2 2 2 3 5 10 12 15 17 19 19 21 22 21 21 27 29 27 25 25 24
18 18 17 16 15 7 9 8 9 4 5 10 3 3 2 2 3 9 8 11 13 17 17 21 22 21 23 23 26 27 26 25 23
19 19 18 17 16 13 12 15 7 6 7 3 7 7 5 3 1 3 7 6 9 13 12 17 20 21 20 24 26 25 25 25 25
19 19 19 18 17 16 16 14 10 7 5 5 3 3 5 5 3 3 5 4 5 10 9 14 17 19 20 21 24 25 24 27 24
Wind_Direction
62 65 61 56 52 63 62 62 55 52 49 48 35 34 55 76 78 76 74 79 84 84 84 87 86 87 86 87 84 76 71 67 63
68 67 63 62 63 64 68 58 60 54 47 43 43 46 58 66 82 75 79 82 82 82 84 83 85 82 77 73 74 73 71 71 69
54 56 60 63 71 69 67 69 59 56 45 39 47 50 54 63 63 59 58 79 83 83 85 86 84 84 81 77 77 74 72 68 67
60 45 45 47 46 50 49 59 54 45 30 24 49 64 52 51 50 46 53 79 88 82 84 82 84 87 89 88 85 80 78 67 63
61 53 49 56 57 61 59 60 62 51 33 26 63 71 57 49 41 30 43 73 97 98 88 76 69 83 93 94 93 80 73 72 69
73 71 64 57 65 63 63 61 50 44 27 24 55 67 57 54 43 31 50 60 74 84 93 85 70 66 84 90 86 83 76 70 67
90 79 70 59 58 59 52 53 45 46 36 21 32 77 70 56 47 34 50 60 63 75 81 80 66 70 83 87 81 79 72 69 63
49 48 36 36 44 47 65 58 53 45 46 36 32 47 76 68 52 37 44 54 57 60 65 75 65 58 74 81 81 78 72 65 62
40 41 27 25 38 39 76 82 67 67 58 56 49 47 52 66 64 51 47 51 57 55 53 60 58 58 57 57 76 75 71 62 57
48 50 32 23 23 25 27 42 59 56 74 76 67 58 61 59 61 59 56 51 56 59 55 55 61 61 62 56 53 54 60 56 51
34 48 50 37 27 16 31 48 56 48 49 52 63 63 60 60 59 62 58 60 59 59 58 56 55 59 58 54 50 48 49 42 33
35 35 29 37 31 24 26 10 42 44 45 49 55 64 69 55 66 56 55 60 64 65 63 59 57 56 56 57 51 42 42 38 37
31 30 18 22 31 20 7 14 31 32 28 24 38 63 56 70 68 71 57 51 67 70 72 63 60 56 55 52 47 44 37 33 29
29 25 12 23 28 21 7 2 54 29 2 342 53 76 66 56 73 66 63 57 59 61 74 72 69 61 53 48 43 39 37 33 30
23 27 20 28 29 21 7 1 49 43 352 331 26 78 84 75 75 76 77 71 63 59 61 62 74 65 54 44 40 36 34 31 29
27 30 28 22 36 26 15 348 32 30 359 17 9 80 75 77 72 64 50 45 45 59 64 61 66 62 51 43 37 33 29 28 26
37 32 30 29 33 29 24 22 359 41 27 10 277 158 80 35 99 76 57 45 35 32 30 59 72 65 53 39 33 27 24 23 19
37 39 39 37 35 29 26 20 23 27 16 35 31 17 45 333 71 60 51 48 32 25 33 54 58 61 55 38 26 23 20 16 12
38 42 42 40 39 34 30 24 25 27 35 17 12 59 49 31 15 90 48 32 28 16 50 55 53 49 50 38 23 19 16 13 10
42 43 42 39 38 32 32 30 28 30 40 51 1 11 38 22 16 335 359 10 6 8 55 62 59 46 39 33 16 13 13 10 9